Location: Breitenbich
(51.2914°N, 10.3920°E)
Time: 20:36:39
(UTC+00:00)

Daily predictions for brighter satellites

Satellite Brightness Start Highest point End
(mag) Time Altitude Azimuth Time Altitude Azimuth Time Altitude Azimuth
Feng Yun 1-1 Rocket 4.5 17:57:23 10° SE 18:02:47 55° ENE 18:08:21 10° N
Resurs 1-3 4.3 18:06:07 10° SE 18:10:03 34° ENE 18:14:00 10° N
Cosmos 1624 Rocket 4.1 18:05:56 10° S 18:11:08 58° ESE 18:16:23 10° NNE
Cosmos 1470 Rocket 3.6 18:07:43 10° S 18:12:11 76° E 18:16:41 10° NNE
Cosmos 2016 Rocket 4.3 18:07:00 10° N 18:12:52 46° ENE 18:18:44 10° SE
NOSS 0 Rocket 4.2 18:07:34 10° NNW 18:13:41 56° NE 18:19:44 10° SE
Cosmos 1420 Rocket 4.0 18:12:20 10° S 18:17:29 61° ESE 18:22:37 10° NNE
Cosmos 2173 Rocket 4.1 18:11:43 10° N 18:18:08 74° ENE 18:24:30 10° SSE
Cosmos 2123 Rocket 4.4 18:13:07 10° SSE 18:18:55 41° E 18:24:47 10° NNE
Okean-O 3.5 18:16:14 10° SE 18:20:08 32° ENE 18:24:05 10° N
SPOT 1/Viking Rocket 4.4 18:16:31 10° ESE 18:21:00 31° ENE 18:25:31 10° N
Okean 2 4.1 18:17:39 10° N 18:21:21 32° ENE 18:25:03 10° SE
Cosmos 1263 4.2 18:18:15 10° S 18:21:42 77° E 18:24:45 10° NNE
Timation 1 Rocket 4.4 18:17:38 10° S 18:23:29 56° ESE 18:29:22 10° NE
Cosmos 1000 Rocket 4.5 18:18:45 10° S 18:24:47 65° E 18:30:52 10° NNE
DMSP B5D1-3 4.5 18:22:23 10° NNE 18:27:34 78° ESE 18:32:42 10° SSW
Okean O Rocket 1.6 18:23:57 10° SSE 18:28:23 88° ENE 18:32:48 10° NNW
Cosmos 2242 Rocket 3.8 18:24:07 10° N 18:28:38 52° ENE 18:33:05 10° SSE
Cosmos 2100 Rocket 4.1 18:22:14 10° N 18:28:41 90° E 18:35:01 10° S
GEOS 3 Rocket 3.7 18:23:49 10° NE 18:29:12 64° SE 18:34:33 10° SSW
YAOGAN 1 3.7 18:26:27 10° S 18:30:37 47° W 18:34:48 10° NNW
USA 215 3.4 18:25:53 10° ENE 18:32:27 79° NNW 18:38:58 10° WSW
CSL-04 Rocket 3.8 18:27:22 10° SE 18:32:48 58° ENE 18:38:14 10° N
ISS -3.8 18:29:30 10° W 18:32:51 88° S 18:35:45 13° E
Cosmos 676 Rocket 4.4 18:28:40 10° NNW 18:33:52 69° WSW 18:39:04 10° SSE
KORONAS-FOTON 4.1 18:30:59 10° NNW 18:34:47 69° W 18:38:35 10° S
SL-27 R/B 2.1 18:32:16 10° SSW 18:35:33 75° ESE 18:38:49 10° NNE
Cosmos 1452 Rocket 4.2 18:31:05 10° SSE 18:35:44 33° ESE 18:40:24 10° NE
Cosmos 2237 Rocket 2.5 18:32:55 10° NNW 18:38:26 50° NE 18:43:20 13° SE
Exosat Rocket 3.8 18:36:40 10° SSW 18:41:54 80° ESE 18:48:46 10° NNE
USA 186 1.6 18:41:45 10° SSE 18:44:50 80° ENE 18:47:58 10° N
Okean 3 4.4 18:43:46 10° NNW 18:47:51 51° W 18:51:57 10° S
Meteor 1-21 4.5 18:42:15 10° NNW 18:47:52 74° W 18:53:29 10° S
H-2A R/B 4.3 18:47:34 15° E 18:49:14 18° ENE 18:52:14 10° NNE
Cosmos 1741 Rocket 4.0 18:44:24 10° NNW 18:49:39 69° ENE 18:54:39 11° SE
Cosmos 1707 4.3 18:49:24 10° NNW 18:52:56 37° W 18:56:26 10° SSW
Cosmos 968 Rocket 4.1 18:49:28 10° NNW 18:54:19 38° NE 18:57:25 19° ESE
CZ-4B R/B 4.3 18:48:56 10° S 18:54:23 48° W 18:59:50 10° NNW
Okean 1-7 4.2 18:50:13 10° NNW 18:54:25 46° W 18:58:34 10° SSW
IRS-1C Rocket 4.2 18:50:26 10° SE 18:55:35 58° ENE 19:00:47 10° N
Cosmos 1674 4.1 18:53:51 10° NNW 18:57:21 40° W 19:00:51 10° SSW
SJ 16-02 3.5 18:55:59 10° NNE 18:57:54 12° NE 18:59:20 11° ENE
Cosmos 1805 3.2 18:55:24 10° S 18:59:07 54° E 19:02:51 10° NNE
Lacrosse 5 rocket 2.7 18:56:00 10° S 18:59:08 20° SE 18:59:08 20° SE
Cosmos 1980 3.7 18:54:09 10° NNW 18:59:51 71° ENE 19:04:23 16° SE
Cosmos 2219 Rocket 3.7 18:55:40 10° NW 19:00:48 36° WSW 19:05:55 10° S
Cosmos 2333 Rocket 4.5 18:58:00 10° NW 19:02:35 25° WSW 19:07:09 10° SSW
Cosmos 1933 Rocket 4.2 18:59:17 10° SSW 19:03:33 59° WNW 19:07:51 10° N
Cosmos 1975 3.1 18:59:38 10° SSW 19:03:35 69° WNW 19:07:35 10° N
SJ-6B 3.4 18:59:53 10° S 19:03:44 56° W 19:07:33 10° NNW
ERS-1 Rocket 4.5 19:04:51 17° E 19:06:24 19° NE 19:09:54 10° NNE
Cosmos 2233 Rocket 3.9 19:01:12 10° N 19:07:22 71° ENE 19:13:32 10° SSE
Cosmos 1726 1.8 19:05:06 10° S 19:08:34 66° E 19:12:05 10° NNE
CSL-04 Debris 4.4 19:03:50 10° S 19:09:13 72° WSW 19:14:42 10° NNW
Cosmos 2061 Rocket 4.1 19:05:03 10° N 19:11:32 88° W 19:17:58 10° S
Ariane Rocket 3.9 19:09:42 23° E 19:11:44 31° ENE 19:16:09 10° N
Cosmos 1869 Rocket 3.5 19:08:48 10° S 19:13:07 86° WNW 19:17:29 10° N
COSMOS 2428 3.7 19:08:36 10° NW 19:14:02 46° WSW 19:19:28 10° S
Cosmos 1900 4.3 19:09:24 10° SW 19:14:21 84° NW 19:19:18 10° NE
Landsat 5 3.6 19:10:54 10° NNE 19:14:35 43° E 19:17:14 18° SSE
SL-14 R/B 3.2 19:12:11 10° NNW 19:16:02 80° W 19:19:24 13° S
USA 281 4.2 19:13:17 10° NNE 19:19:35 50° NW 19:25:51 10° SW
Cosmos 2297 Rocket 2.4 19:16:19 10° S 19:21:39 45° ESE 19:27:00 10° NE
ATLAS 3B R/B 4.2 19:17:09 10° WNW 19:23:32 31° N 19:30:13 10° ENE
IRS-1A Rocket 4.5 19:20:53 23° SE 19:24:32 58° ENE 19:30:17 10° N
Cosmos 1867 3.6 19:20:01 10° SSW 19:25:19 57° ESE 19:30:40 10° NE
Resurs 01 Rocket 1.5 19:25:55 22° SSE 19:28:46 86° ENE 19:33:13 10° NNW
Meteor 2-5 Rocket 4.3 19:24:25 10° N 19:29:55 42° ENE 19:32:00 31° ESE
CZ-4C R/B 3.4 19:26:04 10° NW 19:32:26 47° NNE 19:36:50 25° E
CENTAUR R/B 4.0 19:24:39 10° NW 19:32:28 49° WSW 19:41:00 10° S
NOSS 3-2 (C) 4.2 19:25:23 10° NW 19:32:44 74° SW 19:38:47 21° SSE
Cosmos 1733 4.0 19:29:38 10° SSW 19:33:18 50° WNW 19:37:00 10° N
SPOT 3 Rocket 4.3 19:32:03 31° E 19:33:24 35° ENE 19:38:08 10° N
Cosmos 1271 Rocket 3.4 19:36:58 35° ENE 19:36:58 35° ENE 19:39:39 10° NNE
MOS 1 4.2 19:33:10 22° SSE 19:36:57 81° ENE 19:42:41 10° NNW
Cosmos 2227 Rocket 2.6 19:35:04 26° SSE 19:37:29 37° ESE 19:42:40 10° NE
CZ-4 R/B 4.2 19:35:52 10° SW 19:38:11 15° W 19:40:33 10° NW
Cosmos 1470 4.4 19:40:40 21° NE 19:40:40 21° NE 19:42:23 10° NNE
Iridium 4 Rocket 4.3 19:38:11 10° NNW 19:42:07 40° W 19:46:00 10° SSW
Terra 2.9 19:42:45 28° ENE 19:42:59 28° ENE 19:46:59 10° N
Geosat 4.5 19:40:50 22° S 19:44:03 57° WSW 19:49:01 10° NW
USA 238 DEB 4.0 19:39:08 10° NW 19:46:23 74° SW 19:50:50 28° SSE
USA 238 4.0 19:39:14 10° NW 19:46:29 74° SW 19:50:55 28° SSE
SL-16 R/B 2.4 19:42:17 10° NNW 19:47:55 56° NE 19:49:39 41° ESE
MetOp-A 4.0 19:46:21 34° SSE 19:48:46 81° ENE 19:53:59 10° NNW
Cosmos 1674 Rocket 3.4 19:47:33 10° N 19:51:55 77° E 19:52:41 58° SSE
Cosmos 1733 Rocket 2.9 19:53:01 27° S 19:55:19 87° WNW 19:59:40 10° N
Okean-O 4.1 19:52:29 10° SSW 19:56:32 35° W 20:00:39 10° NNW
CARTOSAT-1 3.6 19:58:45 46° S 19:59:56 74° WSW 20:04:16 10° NNW
SPOT 1/Viking Rocket 4.4 19:55:57 14° S 20:00:13 49° W 20:05:17 10° NNW
Meteor 2-13 Rocket 4.4 19:54:04 10° S 20:00:14 86° E 20:06:26 10° NNE
Cosmos 1110 Rocket 4.1 19:57:16 10° SSW 20:02:29 74° WNW 20:07:41 10° NNE
SPOT 5 2.8 20:02:23 56° E 20:02:41 57° ENE 20:07:26 10° N
Cosmos 1378 Rocket 3.5 19:58:43 10° NNW 20:03:09 81° W 20:04:03 56° S
Cosmos 2221 Rocket 3.8 19:59:47 10° NNW 20:04:12 69° W 20:05:26 45° SSW
Cosmos 1464 Rocket 4.0 20:00:07 10° N 20:06:29 69° ENE 20:08:27 45° SE
USA 245 4.1 20:08:40 38° NNE 20:08:40 38° NNE 20:11:22 10° N
BREEZE-M DEB (TANK) 3.5 20:04:42 10° W 20:08:22 39° WSW 20:08:22 39° WSW
ISS -2.7 20:06:20 10° W 20:08:42 43° W 20:08:42 43° W
USA 215 3.8 20:10:32 19° ENE 20:15:10 55° N 20:21:31 10° W
ADEOS Rocket 3.3 20:15:26 48° ESE 20:17:00 60° ENE 20:23:56 10° N
Cosmos 1891 Rocket 4.4 20:11:10 10° NNW 20:17:20 83° W 20:19:48 40° S
Cosmos 1766 4.2 20:17:37 33° WSW 20:18:49 45° WNW 20:22:30 10° N
Cosmos 1331 Rocket 4.5 20:14:25 10° SW 20:19:30 60° WNW 20:24:39 10° NNE
Meteor 1-22 Rocket 4.3 20:20:16 53° SSE 20:21:37 70° E 20:27:41 10° NNE
Cosmos 2237 Rocket 3.5 20:17:16 10° NW 20:22:20 35° WSW 20:25:11 22° SSW
Cosmos 1908 Rocket 4.4 20:25:08 41° NNE 20:25:08 41° NNE 20:28:11 10° NNE
H-2A R/B 2.6 20:23:55 73° WSW 20:24:00 73° WSW 20:28:28 10° NNW
Cosmos 1025 Rocket 4.0 20:20:48 10° N 20:23:45 36° NNE 20:23:45 36° NNE
Meteor 1-15 Rocket 4.2 20:24:42 41° SSW 20:26:52 90° WNW 20:32:48 10° NNE
Cosmos 2263 Rocket 4.4 20:31:41 11° NE 20:31:41 11° NE 20:31:53 10° NE
Cosmos 1340 Rocket 4.2 20:23:36 10° N 20:25:51 29° NNE 20:25:51 29° NNE
Cosmos 2346 Rocket 4.4 20:31:22 38° SSW 20:33:53 84° W 20:40:09 10° N
ATLAS CENTAUR R/B 4.0 20:19:58 10° WSW 20:34:42 83° NNW 20:40:10 18° ENE
SJ 16-02 2.1 20:32:54 10° NNW 20:36:14 47° N 20:36:14 47° N
ARIANE 5 R/B 4.2 20:38:53 25° NNE 20:38:53 25° NNE 20:41:14 10° N
Lacrosse 5 rocket 3.5 20:33:22 10° WSW 20:34:34 18° WSW 20:34:34 18° WSW
Meteor 1-12 Rocket 4.4 20:38:17 35° SSW 20:40:49 71° WNW 20:46:32 10° N
Cosmos 1975 Rocket 4.1 20:36:57 10° N 20:39:54 39° NNE 20:39:54 39° NNE
FALCON 9 R/B 4.3 20:31:26 10° WSW 20:43:56 26° SSW 20:45:16 25° SSW
ERS-1 Rocket 3.0 20:44:49 78° WNW 20:44:49 78° WNW 20:49:40 10° NNW
Meteor 1-24 Rocket 4.1 20:40:12 10° NNW 20:46:04 65° W 20:47:15 53° SSW
Cosmos 1816 Rocket 4.3 20:47:04 71° E 20:47:04 71° E 20:53:00 10° NNE
Cosmos 1634 Rocket 4.3 20:42:32 10° N 20:48:28 52° ENE 20:48:28 52° ENE
Ariane Rocket 3.7 20:49:52 44° WSW 20:50:31 46° W 20:55:26 10° NNW
Cosmos 1603 4.3 20:45:42 10° NNW 20:51:00 44° NE 20:51:00 44° NE
BREEZE-M DEB (TANK) 3.6 20:45:56 10° WNW 20:50:43 48° WSW 20:50:43 48° WSW
NOSS 3-4 (A) 4.2 20:55:35 36° NE 20:55:35 36° NE 20:59:15 10° NE
NOSS 3-4 (C) 4.3 20:55:52 34° NE 20:55:52 34° NE 20:59:20 10° NE
Cosmos 1943 3.5 20:49:24 10° NNW 20:54:31 54° NE 20:54:31 54° NE
Spot 2 Rocket 3.9 21:01:35 59° W 21:01:35 59° W 21:06:22 10° NNW
Cosmos 2344 4.3 20:57:17 10° NW 21:05:10 55° NNE 21:08:49 38° E
Cosmos 2297 Rocket 3.4 21:00:27 10° WSW 21:05:46 41° NW 21:11:08 10° NNE
Resurs 01 Rocket 4.4 21:03:47 10° WSW 21:05:52 13° W 21:07:57 10° WNW
Cosmos 2034 Rocket 4.1 21:01:12 10° NNW 21:07:22 67° W 21:07:51 64° WSW
SPOT 3 Rocket 4.5 21:12:40 42° W 21:12:44 42° W 21:17:42 10° NNW
Cosmos 2219 3.4 21:13:56 65° NW 21:13:56 65° NW 21:19:27 10° NNE
Tsikada Rocket 4.1 21:15:13 65° NNE 21:15:13 65° NNE 21:20:29 10° NNE
Meteor 2-19 Rocket 4.4 21:15:20 78° WNW 21:15:20 78° WNW 21:21:24 10° N
ATLAS 3B R/B 3.5 21:08:48 10° NW 21:16:02 49° NNE 21:17:41 43° ENE
Terra 3.0 21:21:29 39° WNW 21:21:29 39° WNW 21:25:00 10° NNW
Cosmos 2227 Rocket 3.1 21:16:00 10° SW 21:21:28 47° NW 21:26:56 10° NNE
CZ-4C R/B 2.9 21:14:26 10° NW 21:21:29 71° SW 21:21:59 69° SSW
SL-16 R/B 3.5 21:26:50 10° NW 21:31:32 31° W 21:31:32 31° W
H-2A R/B 4.3 21:50:03 10° N 21:51:45 22° N 21:51:45 22° N
Cosmos 2279 Rocket 4.4 21:51:26 10° NNW 21:56:22 58° NNW 21:56:22 58° NNW
USA 215 3.5 21:57:51 65° NNE 21:57:51 65° NNE 22:04:15 10° WNW
NOSS 3-1 (C) 4.3 21:53:36 10° NW 22:00:22 55° NE 22:00:49 55° NE
ADEOS Rocket 4.4 22:02:22 31° W 22:02:57 32° W 22:09:06 10° NNW
Cosmos 2263 Rocket 3.6 22:13:19 32° NNE 22:13:19 32° NNE 22:16:21 10° NNE
SJ 16-02 4.2 22:12:27 10° NW 22:13:07 12° WNW 22:13:07 12° WNW
ATLAS 2AS CENTAUR R/B 3.9 22:29:02 35° NE 22:29:02 35° NE 22:32:55 10° NE
ATLAS CENTAUR R/B 3.8 22:40:33 10° W 22:49:44 50° NNW 22:49:44 50° NNW
Cosmos 2082 Rocket 4.1 22:58:11 10° NNW 23:02:28 24° NE 23:02:28 24° NE
NOSS 3-1 (A) 4.2 22:57:37 10° NW 23:03:39 62° N 23:03:39 62° N
ATLAS 3B R/B 3.6 22:59:43 10° NW 23:04:56 47° WNW 23:04:56 47° WNW
Cosmos 1833 Rocket 4.3 23:09:47 10° NNW 23:12:53 31° N 23:12:53 31° N
Cosmos 2344 4.3 23:11:34 10° NW 23:18:50 57° W 23:18:50 57° W
Cosmos 2263 Rocket 4.4 23:54:56 17° NW 23:55:55 18° NNW 23:59:43 10° NNE
